CW3833 Weather Reports


time (UTC)temp
C
wind
direction
speed
KPH
gust
KPH
rain 1hr
cm
rain 24hr
cm
rain mn
cm
humidity
%
barometer
mb
20260504201601 21 161 19.3 33.8 0.00 0.00 0.00 35 1003.7
20260504200057 21 213 11.3 32.2 0.00 0.00 0.00 35 1003.7
20260504194555 21 207 17.7 33.8 0.00 0.00 0.00 37 1004.2
20260504193056 21 242 8.0 24.1 0.00 0.00 0.00 41 1004.4
20260504191608 21 279 11.3 25.7 0.00 0.00 0.00 39 1004.5
20260504190117 21 194 14.5 30.6 0.00 0.00 0.00 40 1004.8
20260504184558 20 238 8.0 27.4 0.00 0.00 0.00 42 1005.0
20260504183105 21 237 11.3 30.6 0.00 0.00 0.00 41 1005.1
20260504181600 20 223 16.1 35.4 0.00 0.00 0.00 44 1005.2
20260504180112 20 215 17.7 32.2 0.00 0.00 0.00 46 1005.1
20260504174557 20 225 8.0 27.4 0.00 0.00 0.00 45 1005.2
20260504173100 19 192 11.3 35.4 0.00 0.00 0.00 46 1005.4
20260504171558 19 196 9.7 25.7 0.00 0.00 0.00 48 1005.4
20260504160104 17 177 17.7 29.0 0.00 0.00 0.00 50 1005.9
20260504140104 14 295 17.7 33.8 0.00 0.00 0.00 53 1006.5
20260504100104 9 203 19.3 35.4 0.00 0.00 0.00 57 1006.6
20260504081600 9 176 11.3 27.4 0.00 0.00 0.00 57 1007.4
20260504080109 9 171 11.3 22.5 0.00 0.00 0.00 57 1007.6
20260504050107 9 207 8.0 19.3 0.00 0.00 0.00 56 1008.4
20260504044601 10 249 8.0 19.3 0.00 0.00 0.00 56 1008.6
20260504043058 9 202 4.8 14.5 0.00 0.00 0.00 57 1008.6
20260504041605 10 205 4.8 14.5 0.00 0.00 0.00 56 1008.6
20260504034555 11 200 8.0 24.1 0.00 0.00 0.00 54 1008.7
20260504033055 11 225 8.0 22.5 0.00 0.00 0.00 54 1008.7
20260504031558 11 233 9.7 20.9 0.00 0.00 0.00 55 1008.6
20260504030058 10 269 8.0 25.7 0.00 0.00 0.00 56 1008.6
20260504024615 11 225 9.7 24.1 0.00 0.00 0.00 55 1008.6
20260504023055 11 205 12.9 29.0 0.00 0.00 0.00 55 1008.6
20260504021557 11 258 9.7 33.8 0.00 0.00 0.00 54 1008.9
20260504020058 11 259 12.9 48.3 0.00 0.00 0.00 53 1008.9
20260504014605 11 213 8.0 24.1 0.00 0.00 0.00 53 1009.0
20260504013057 11 294 9.7 25.7 0.00 0.00 0.00 53 1008.8
20260504011557 11 229 12.9 35.4 0.00 0.00 0.00 53 1009.0
20260504010104 11 234 8.0 25.7 0.00 0.00 0.00 53 1009.2
20260504004601 11 248 14.5 30.6 0.00 0.00 0.00 53 1009.2
20260504003057 11 232 11.3 38.6 0.00 0.00 0.00 51 1009.3
20260504001556 11 252 12.9 30.6 0.00 0.00 0.00 49 1008.9
20260504000135 11 223 11.3 29.0 0.00 0.00 0.00 49 1008.9
20260503234601 11 234 6.4 43.5 0.00 0.00 0.00 50 1008.9
20260503233055 11 252 12.9 33.8 0.00 0.00 0.00 48 1008.9
20260503231555 12 205 17.7 37.0 0.00 0.00 0.00 47 1008.6
20260503230055 12 278 14.5 37.0 0.00 0.00 0.00 46 1008.6
20260503224558 12 214 9.7 24.1 0.00 0.00 0.00 43 1008.4
20260503223057 12 227 12.9 35.4 0.00 0.00 0.00 41 1008.3
20260503221559 12 263 11.3 30.6 0.00 0.00 0.00 43 1008.5
20260503220057 12 305 11.3 27.4 0.00 0.00 0.00 43 1008.2
20260503214619 12 248 9.7 29.0 0.00 0.00 0.00 43 1008.6
20260503213111 13 302 12.9 30.6 0.00 0.00 0.00 39 1008.3
20260503211619 13 248 9.7 25.7 0.00 0.00 0.00 41 1008.3
20260503210101 13 270 9.7 24.1 0.00 0.00 0.00 43 1008.3
20260503204559 12 210 6.4 17.7 0.00 0.00 0.00 44 1008.4
20260503203110 12 207 6.4 17.7 0.00 0.00 0.00 45 1008.8